Brisbane, Australia

9:50 AM AEST on December 08, 2016 (GMT +1000)
Brisbane International

Weather History for YBBN - April, 2014

Change the Weather History Date:

Tuesday, April 22, 2014

  Actual Average Record
Temperature  
Mean Temperature 70 °F -  
Max Temperature 80 °F 76 °F 84 °F (2002)
Min Temperature 59 °F 59 °F 52 °F (2015)
Cooling Degree Days 4    
Growing Degree Days 20 (Base 50)    
Moisture  
Dew Point 58 °F    
Average Humidity 69    
Maximum Humidity 100    
Minimum Humidity 28    
Precipitation  
Precipitation 0.00 in - - ()
Sea Level Pressure  
Sea Level Pressure 30.11 in    
Wind  
Wind Speed 4 mph ()    
Max Wind Speed 10 mph    
Max Gust Speed 21 mph    
Visibility 7.3 miles    
Events Fog    
Averages and records for this station are not official NWS values.
T = Trace of Precipitation, MM = Missing Value Source: Averaged Metar Reports

Daily Weather History Graph

Daily Weather History Graph

Search for Another Location

Airport or City:

Trip Planner

Search our weather history database for the weather conditions in past years. The results will help you decide how hot, cold, wet, or windy it might be!

Date:

Astronomy

Apr. 22, 2014 Rise Set
Actual Time 6:07 AM AEST 5:24 PM AEST
Civil Twilight 5:43 AM AEST 5:47 PM AEST
Nautical Twilight 5:16 AM AEST 6:15 PM AEST
Astronomical Twilight 4:49 AM AEST 6:42 PM AEST
Moon 11:43 PM AEST (4/22) 12:18 PM AEST (4/22)
Length of Visible Light 12h 04m
Length of Day
11h 16m
Waning Gibbous, 53% of the Moon is Illuminated
Apr 22
Waning Gibbous
Apr 22
Last Quarter
Apr 29
New
May 7
First Quarter
May 15
Full

Hourly Weather History & Observations

Time (AEST) Temp. Heat Index Dew Point Humidity Pressure Visibility Wind Dir Wind Speed Gust Speed Precip Events Conditions
12:00 AM 65 °F - 61 °F 83% 30.14 in 25 mi WNW 1.2 mph - -   Partly Cloudy
12:00 AM 64.4 °F - 60.8 °F 88% 30.12 in - WNW 1.2 mph - N/A   Clear
12:30 AM 64.4 °F - 60.8 °F 88% 30.12 in - Calm Calm - N/A   Clear
1:00 AM 65 °F - 60 °F 81% 30.14 in - Calm Calm - -  
1:00 AM 64.4 °F - 60.8 °F 88% 30.12 in - Calm Calm - N/A   Clear
1:30 AM 64.4 °F - 60.8 °F 88% 30.12 in - NW 3.5 mph - N/A   Clear
2:00 AM 64.4 °F - 60.8 °F 88% 30.12 in - Calm Calm - N/A   Clear
2:30 AM 62.6 °F - 60.8 °F 94% 30.09 in - Calm Calm - N/A   Clear
2:45 AM 62.6 °F - 60.8 °F 94% 30.09 in 6.2 mi WNW 1.2 mph - N/A Fog Shallow Fog
3:00 AM 63 °F - 61 °F 91% 30.12 in 25 mi SE 4.6 mph - - Fog Patches of Fog
3:00 AM 62.6 °F - 60.8 °F 94% 30.09 in 6.2 mi SE 4.6 mph - N/A Fog Shallow Fog
3:30 AM 62.6 °F - 59.0 °F 88% 30.12 in 6.2 mi Calm Calm - N/A Fog Shallow Fog
4:00 AM 60 °F - 58 °F 92% 30.13 in - Calm Calm - -  
4:00 AM 60.8 °F - 59.0 °F 94% 30.12 in 6.2 mi Calm Calm - N/A Fog Shallow Fog
4:30 AM 60.8 °F - 60.8 °F 100% 30.12 in 6.2 mi SSW 5.8 mph - N/A Fog Shallow Fog
5:00 AM 60.8 °F - 60.8 °F 100% 30.12 in - SSW 8.1 mph - N/A   Clear
5:30 AM 62.6 °F - 60.8 °F 94% 30.12 in 6.2 mi South 6.9 mph - N/A   Partly Cloudy
6:00 AM 61 °F - 59 °F 92% 30.15 in 16 mi SSW 6.9 mph - -   Haze
6:00 AM 60.8 °F - 59.0 °F 94% 30.15 in 6.2 mi SSW 6.9 mph - N/A   Partly Cloudy
6:30 AM 62.6 °F - 60.8 °F 94% 30.15 in 6.2 mi SSW 5.8 mph - N/A   Partly Cloudy
7:00 AM 63 °F - 61 °F 91% 30.16 in - SSW 8.1 mph - -  
7:00 AM 62.6 °F - 60.8 °F 94% 30.15 in 6.2 mi SSW 8.1 mph - N/A   Partly Cloudy
7:30 AM 66.2 °F - 62.6 °F 88% 30.15 in 6.2 mi SSW 8.1 mph - N/A   Partly Cloudy
8:00 AM 68.0 °F - 62.6 °F 83% 30.15 in 6.2 mi SSW 8.1 mph - N/A   Partly Cloudy
8:30 AM 71.6 °F - 62.6 °F 73% 30.18 in 6.2 mi SSW 9.2 mph - N/A   Partly Cloudy
9:00 AM 73 °F - 61 °F 57% 30.18 in 19 mi SW 6.9 mph - -   Partly Cloudy
9:00 AM 73.4 °F - 60.8 °F 65% 30.15 in 6.2 mi SW 6.9 mph - N/A   Partly Cloudy
9:30 AM 77.0 °F - 60.8 °F 57% 30.15 in 6.2 mi West 3.5 mph - N/A   Partly Cloudy
10:00 AM 77 °F - 58 °F 41% 30.17 in - North 5.8 mph - -  
10:00 AM 77.0 °F - 57.2 °F 50% 30.15 in 6.2 mi North 5.8 mph - N/A   Partly Cloudy
10:30 AM 77.0 °F - 55.4 °F 47% 30.15 in 6.2 mi North 6.9 mph - N/A   Partly Cloudy
11:00 AM 78.8 °F - 53.6 °F 42% 30.15 in - NNW 8.1 mph 20.7 mph N/A   Clear
11:30 AM 78.8 °F - 53.6 °F 42% 30.12 in - NW 6.9 mph - N/A   Clear
12:00 PM 79 °F - 55 °F 32% 30.13 in 25 mi NNE 8.1 mph - -   Partly Cloudy
12:00 PM 78.8 °F - 55.4 °F 44% 30.12 in - NNE 8.1 mph - N/A   Clear
12:30 PM 80.6 °F 80.5 °F 55.4 °F 42% 30.09 in - North 6.9 mph - N/A   Clear
1:00 PM 79 °F - 52 °F 28% 30.10 in - North 8.1 mph - -  
1:00 PM 78.8 °F - 51.8 °F 39% 30.09 in - North 8.1 mph - N/A   Clear
1:30 PM 78.8 °F - 50.0 °F 36% 30.06 in - NNE 9.2 mph - N/A   Clear
2:00 PM 78.8 °F - 51.8 °F 39% 30.06 in - NE 9.2 mph - N/A   Clear
2:30 PM 78.8 °F - 51.8 °F 39% 30.06 in - NE 8.1 mph - N/A   Clear
3:00 PM 78 °F - 55 °F 34% 30.08 in 25 mi NE 9.2 mph - -   Partly Cloudy
3:00 PM 78.8 °F - 55.4 °F 44% 30.06 in - NE 9.2 mph - N/A   Clear
3:30 PM 77.0 °F - 57.2 °F 50% 30.06 in - NE 10.4 mph - N/A   Clear
4:00 PM 77 °F - 56 °F 39% 30.08 in - NE 10.4 mph - -  
4:00 PM 77.0 °F - 57.2 °F 50% 30.06 in 6.2 mi NE 10.4 mph - N/A   Unknown
4:30 PM 75.2 °F - 57.2 °F 53% 30.06 in 6.2 mi NE 8.1 mph - N/A   Scattered Clouds
5:00 PM 73.4 °F - 59.0 °F 61% 30.06 in 6.2 mi NE 6.9 mph - N/A   Unknown
5:30 PM 69.8 °F - 59.0 °F 68% 30.06 in 6.2 mi NE 6.9 mph - N/A   Mostly Cloudy
6:00 PM 70 °F - 59 °F 60% 30.09 in 25 mi NNE 8.1 mph - -   Partly Cloudy
6:00 PM 69.8 °F - 59.0 °F 68% 30.06 in 6.2 mi NNE 8.1 mph - N/A   Mostly Cloudy
6:30 PM 69.8 °F - 59.0 °F 68% 30.09 in 6.2 mi NNE 9.2 mph - N/A   Mostly Cloudy
7:00 PM 70 °F - 58 °F 58% 30.11 in - NNE 9.2 mph - -  
7:00 PM 69.8 °F - 59.0 °F 68% 30.09 in 6.2 mi NNE 9.2 mph - N/A   Mostly Cloudy
7:30 PM 68.0 °F - 57.2 °F 68% 30.09 in 6.2 mi NNE 5.8 mph - N/A   Mostly Cloudy
8:00 PM 68.0 °F - 57.2 °F 68% 30.09 in 6.2 mi NNE 8.1 mph - N/A   Mostly Cloudy
8:30 PM 68.0 °F - 57.2 °F 68% 30.09 in 6.2 mi NNE 8.1 mph - N/A   Mostly Cloudy
9:00 PM 68 °F - 58 °F 62% 30.12 in 19 mi NNE 9.2 mph - -   Partly Cloudy
9:00 PM 68.0 °F - 57.2 °F 68% 30.09 in 6.2 mi NNE 9.2 mph - N/A   Mostly Cloudy
9:30 PM 69.8 °F - 60.8 °F 73% 30.09 in 6.2 mi North 8.1 mph - N/A   Mostly Cloudy
10:00 PM 67 °F - 60 °F 72% 30.12 in - West 5.8 mph - -  
10:00 PM 68.0 °F - 60.8 °F 78% 30.09 in 6.2 mi West 5.8 mph - N/A   Mostly Cloudy
10:30 PM 68.0 °F - 60.8 °F 78% 30.09 in - West 3.5 mph - N/A   Clear
11:00 PM 66.2 °F - 60.8 °F 83% 30.09 in - WSW 4.6 mph - N/A   Clear
11:30 PM 66.2 °F - 60.8 °F 83% 30.09 in - West 4.6 mph - N/A   Clear